パンスターズ彗星

C/2019 U5 ( PanSTARRS )

English version
Home page
Updated on July 18, 2024

---------------------------------------------------------------------

・ プロフィール

発見日 2019年10月22日
発見光度 21.1等
発見者 Pan-STARRS 1 telescope (Haleakala)

・ 写真集

・ 軌道要素

Epoch 2024 Mar. 31.0 TT = JDT 2460400.5
T 2023 Mar. 29.71125 TT                                 Rudenko
q   3.6239162            (2000.0)            P               Q
z  -0.0002659      Peri.  181.47134     -0.99908591     +0.00733112
 +/-0.0000004      Node     2.63242     -0.02336941     +0.73126301
e   1.0009635      Incl.  113.51489     -0.03579412     -0.68205621
>From 4785 observations 2019 Oct. 11-2024 Feb. 25, mean residual 0".4.

・ 星図

・ 光度変化

        m1 = 2.5 + 5 logΔ + 12.0 log r  [ ,0]  (              〜2023年 3月29日)
        m1 = 0.8 + 5 logΔ + 15.0 log r  [0, ]  (2023年 3月29日〜              )

---------------------------------------------------------------------

軌道要素はM.P.E.C. 2024-D126に掲載されたものです。
星図はステラナビゲータ Ver.10 (アストロアーツ) で作成したものです。
光度グラフはComet for Windowsで作成したものです。

---------------------------------------------------------------------

Copyright(C) Seiichi Yoshida (comet@aerith.net). All rights reserved.